User: anonymous   Login
Location: Trois-Rivi�res
(46.3500°N, 72.5500°W)
Time: 04:14:43
(UTC-04:00)
Language:

SJ-11-01 - Orbit

View from above orbital plane
View from above orbital plane
View from above satellite
View from above satellite

Ground track
Ground track

The orbit data is extracted from the following two-line orbital elements,

1 36088U 09061A   15116.15641778  .00000862  00000-0  19111-3 0  9996
2 36088 098.2435 162.4046 0011266 180.9140 179.2058 14.59575437290407
Epoch (UTC): 26 April 2015 03:45:14
Eccentricity: 0.0011266
inclination: 98.2435°
perigee height: 686 km
apogee height: 702 km
right ascension of ascending node: 162.4046°
argument of perigee: 180.9140°
revolutions per day: 14.59575437
mean anomaly at epoch: 179.2058°
orbit number at epoch: 29040

The dashed part of the orbit path shows where the satellite is in the earth's shadow,  

DLR